Colby, KS

10:19 AM CST on February 13, 2016 (GMT -0600)
Shaltz

Weather History for KCBK - October, 2012

Change the Weather History Date:

Saturday, October 6, 2012

  Actual Average (KGLD) Record (KGLD)
Temperature  
Mean Temperature 34 °F 56 °F  
Max Temperature 37 °F 70 °F 91 °F (2007)
Min Temperature 32 °F 41 °F 19 °F (1952)
Degree Days  
Heating Degree Days 30 10  
Month to date heating degree days 54  
Since 1 July heating degree days 178  
Cooling Degree Days 0 0  
Month to date cooling degree days 5  
Year to date cooling degree days 938  
Moisture  
Dew Point 34 °F    
Average Humidity 99    
Maximum Humidity 100    
Minimum Humidity 93    
Precipitation  
Precipitation 0.00 in 0.05 in 1.07 in (2004)
Month to date precipitation 0.29  
Year to date precipitation 17.41  
Snow  
Snow - 0.00 in - ()
Month to date snowfall 0.2  
Since 1 July snowfall 0.6  
Since 1 September snowfall 0.6  
Snow Depth -    
Sea Level Pressure  
Sea Level Pressure 30.34 in    
Wind  
Wind Speed 5 mph ()    
Max Wind Speed 14 mph    
Max Gust Speed 17 mph    
Visibility 6.9 miles    
Events Rain , Snow    
T = Trace of Precipitation, MM = Missing Value Source: Averaged Metar Reports

Daily Weather History Graph

Daily Weather History Graph

Search for Another Location

Airport or City:

Trip Planner

Search our weather history database for the weather conditions in past years. The results will help you decide how hot, cold, wet, or windy it might be!

Date:

Astronomy

Oct. 06, 2012 Rise Set
Actual Time 7:45 AM CDT 7:17 PM CDT
Civil Twilight 7:18 AM CDT 7:44 PM CDT
Nautical Twilight 6:47 AM CDT 8:15 PM CDT
Astronomical Twilight 6:16 AM CDT 8:47 PM CDT
Moon 11:36 PM CDT (10/6) 1:40 PM CDT (10/6)
Length of Visible Light 12h 25m
Length of Day
11h 32m
Waning Gibbous, 65% of the Moon is Illuminated
Oct 6
Waning Gibbous
Oct 8
Last Quarter
Oct 15
New
Oct 21
First Quarter
Oct 29
Full

Hourly Weather History & Observations

Time (CDT) Temp. Windchill Dew Point Humidity Pressure Visibility Wind Dir Wind Speed Gust Speed Precip Events Conditions
12:15 AM 35.6 °F 32.8 °F 35.6 °F 100% 30.36 in 10.0 mi SSW 3.5 mph - N/A   Overcast
12:35 AM 35.6 °F 31.7 °F 35.6 °F 100% 30.36 in 10.0 mi SW 4.6 mph - N/A   Overcast
12:55 AM 37.4 °F - 35.6 °F 93% 30.35 in 10.0 mi Calm Calm - N/A   Overcast
1:15 AM 37.4 °F - 35.6 °F 93% 30.34 in 10.0 mi Calm Calm - N/A   Overcast
1:35 AM 37.4 °F 34.9 °F 37.4 °F 100% 30.34 in 10.0 mi West 3.5 mph - N/A   Overcast
1:55 AM 37.4 °F - 35.6 °F 93% 30.33 in 10.0 mi Calm Calm - N/A   Overcast
2:15 AM 37.4 °F 34.9 °F 35.6 °F 93% 30.32 in 10.0 mi NW 3.5 mph - N/A   Overcast
2:35 AM 37.4 °F 34.9 °F 35.6 °F 93% 30.32 in 10.0 mi NNW 3.5 mph - N/A   Overcast
2:55 AM 37.4 °F - 35.6 °F 93% 30.32 in 10.0 mi Calm Calm - N/A   Overcast
3:15 AM 37.4 °F 34.9 °F 35.6 °F 93% 30.32 in 10.0 mi NNW 3.5 mph - N/A   Overcast
3:55 AM 37.4 °F - 35.6 °F 93% 30.30 in 10.0 mi Calm Calm - N/A   Overcast
4:35 AM 35.6 °F - 35.6 °F 100% 30.30 in 10.0 mi Calm Calm - N/A   Overcast
4:55 AM 35.6 °F 32.8 °F 35.6 °F 100% 30.30 in 10.0 mi North 3.5 mph - N/A   Overcast
5:15 AM 35.6 °F - 35.6 °F 100% 30.31 in 10.0 mi Calm Calm - N/A   Overcast
5:35 AM 37.4 °F 33.8 °F 35.6 °F 93% 30.31 in 10.0 mi North 4.6 mph - N/A   Overcast
5:55 AM 35.6 °F 32.8 °F 35.6 °F 100% 30.31 in 10.0 mi North 3.5 mph - N/A   Overcast
6:15 AM 35.6 °F 31.7 °F 35.6 °F 100% 30.31 in 10.0 mi North 4.6 mph - N/A   Overcast
6:55 AM 35.6 °F 32.8 °F 35.6 °F 100% 30.32 in 10.0 mi North 3.5 mph - N/A   Light Drizzle
7:15 AM 37.4 °F 33.8 °F 37.4 °F 100% 30.32 in 10.0 mi NNE 4.6 mph - N/A Rain Light Rain
7:35 AM 35.6 °F 30.7 °F 35.6 °F 100% 30.32 in 7.0 mi NNE 5.8 mph - N/A   Drizzle
7:55 AM 35.6 °F 29.9 °F 35.6 °F 100% 30.32 in 4.0 mi NE 6.9 mph - N/A Rain Light Rain
8:15 AM 33.8 °F 27.0 °F 33.8 °F 100% 30.32 in 4.0 mi ENE 8.1 mph - N/A Rain Light Rain
8:35 AM 33.8 °F 26.4 °F 33.8 °F 100% 30.33 in 3.0 mi ENE 9.2 mph - N/A Snow Light Snow
8:55 AM 33.8 °F 26.4 °F 33.8 °F 100% 30.34 in 2.0 mi ENE 9.2 mph - N/A Snow Light Snow
9:15 AM 33.8 °F 26.4 °F 33.8 °F 100% 30.34 in 1.5 mi ENE 9.2 mph - N/A Snow Light Snow
9:35 AM 33.8 °F 25.3 °F 33.8 °F 100% 30.34 in 1.2 mi ENE 11.5 mph - N/A Snow Light Snow
9:55 AM 33.8 °F 25.8 °F 33.8 °F 100% 30.34 in 1.5 mi East 10.4 mph - N/A Snow Light Snow
10:35 AM 33.8 °F 24.3 °F 33.8 °F 100% 30.34 in 1.5 mi East 13.8 mph - N/A Snow Light Snow
10:55 AM 33.8 °F 25.3 °F 33.8 °F 100% 30.35 in 2.0 mi East 11.5 mph - N/A Snow Light Snow
11:15 AM 33.8 °F 25.3 °F 33.8 °F 100% 30.35 in 1.8 mi East 11.5 mph - N/A Snow Light Snow
11:35 AM 33.8 °F 24.8 °F 33.8 °F 100% 30.35 in 4.0 mi East 12.7 mph 17.3 mph N/A Snow Light Snow
11:55 AM 33.8 °F 25.8 °F 33.8 °F 100% 30.35 in 1.8 mi East 10.4 mph - N/A Snow Light Snow
12:15 PM 33.8 °F 26.4 °F 33.8 °F 100% 30.35 in 2.0 mi East 9.2 mph - N/A Snow Light Snow
12:35 PM 33.8 °F 26.4 °F 33.8 °F 100% 30.36 in 2.0 mi East 9.2 mph - N/A Snow Light Snow
12:55 PM 33.8 °F 27.0 °F 33.8 °F 100% 30.37 in 1.0 mi East 8.1 mph - N/A Snow Light Snow
1:15 PM 33.8 °F 25.8 °F 33.8 °F 100% 30.37 in 1.0 mi East 10.4 mph - N/A Snow Light Snow
1:35 PM 32.0 °F 24.8 °F 32.0 °F 100% 30.36 in 0.8 mi East 8.1 mph - N/A Snow Light Snow
1:55 PM 33.8 °F 27.0 °F 33.8 °F 100% 30.36 in 3.0 mi East 8.1 mph - N/A Snow Light Snow
2:15 PM 33.8 °F 25.8 °F 33.8 °F 100% 30.36 in 7.0 mi East 10.4 mph - N/A   Overcast
2:35 PM 33.8 °F 25.8 °F 33.8 °F 100% 30.35 in 5.0 mi East 10.4 mph - N/A Snow Light Snow
2:55 PM 33.8 °F 26.4 °F 33.8 °F 100% 30.34 in 5.0 mi East 9.2 mph - N/A Snow Light Snow
3:15 PM 33.8 °F 26.4 °F 33.8 °F 100% 30.34 in 3.0 mi East 9.2 mph - N/A Snow Light Snow
3:35 PM 33.8 °F 27.0 °F 33.8 °F 100% 30.34 in 2.0 mi East 8.1 mph - N/A Snow Light Snow
3:55 PM 33.8 °F 25.8 °F 33.8 °F 100% 30.34 in 2.0 mi ESE 10.4 mph - N/A Snow Light Snow
4:15 PM 33.8 °F 25.8 °F 33.8 °F 100% 30.34 in 4.0 mi ESE 10.4 mph - N/A Snow Light Snow
4:35 PM 35.6 °F 28.6 °F 35.6 °F 100% 30.34 in 7.0 mi East 9.2 mph - N/A Snow Light Snow
4:55 PM 33.8 °F 27.0 °F 33.8 °F 100% 30.34 in 10.0 mi East 8.1 mph - N/A   Overcast
5:15 PM 35.6 °F 29.2 °F 33.8 °F 93% 30.34 in 10.0 mi East 8.1 mph - N/A   Overcast
5:35 PM 33.8 °F 27.7 °F 33.8 °F 100% 30.35 in 7.0 mi East 6.9 mph - N/A Rain Light Rain
5:55 PM 33.8 °F 27.7 °F 33.8 °F 100% 30.35 in 2.5 mi ENE 6.9 mph - N/A Snow Light Snow
6:15 PM 33.8 °F 27.7 °F 33.8 °F 100% 30.35 in 5.0 mi ENE 6.9 mph - N/A Snow Light Snow
6:35 PM 33.8 °F 30.8 °F 33.8 °F 100% 30.35 in 10.0 mi ENE 3.5 mph - N/A Snow Light Snow
6:55 PM 33.8 °F 30.8 °F 33.8 °F 100% 30.35 in 10.0 mi ENE 3.5 mph - N/A Snow Light Snow
7:15 PM 33.8 °F 28.6 °F 33.8 °F 100% 30.36 in 10.0 mi NNE 5.8 mph - N/A   Overcast
7:35 PM 33.8 °F 28.6 °F 33.8 °F 100% 30.36 in 10.0 mi NNE 5.8 mph - N/A   Overcast
7:55 PM 33.8 °F 29.6 °F 33.8 °F 100% 30.36 in 10.0 mi NNE 4.6 mph - N/A   Overcast
8:15 PM 33.8 °F 27.7 °F 33.8 °F 100% 30.37 in 10.0 mi NNE 6.9 mph - N/A   Overcast
8:35 PM 33.8 °F 28.6 °F 33.8 °F 100% 30.37 in 10.0 mi NE 5.8 mph - N/A   Overcast
8:55 PM 33.8 °F 30.8 °F 33.8 °F 100% 30.37 in 10.0 mi NE 3.5 mph - N/A   Overcast
9:15 PM 33.8 °F 30.8 °F 33.8 °F 100% 30.37 in 10.0 mi NNE 3.5 mph - N/A   Overcast
9:35 PM 33.8 °F - 33.8 °F 100% 30.37 in 10.0 mi Calm Calm - N/A   Overcast
9:55 PM 33.8 °F - 33.8 °F 100% 30.37 in 10.0 mi Calm Calm - N/A   Overcast
10:15 PM 33.8 °F - 33.8 °F 100% 30.36 in 10.0 mi Calm Calm - N/A   Overcast
10:35 PM 33.8 °F - 33.8 °F 100% 30.36 in 10.0 mi Calm Calm - N/A   Overcast
10:55 PM 33.8 °F - 33.8 °F 100% 30.35 in 10.0 mi Calm Calm - N/A   Overcast
11:15 PM 33.8 °F - 33.8 °F 100% 30.36 in 10.0 mi Calm Calm - N/A   Overcast
11:55 PM 33.8 °F - 33.8 °F 100% 30.35 in 10.0 mi Calm Calm - N/A   Overcast